Regional Weather Roundup
Issued by NWS New Orleans/Baton Rouge, LA

Home | Current Version | Previous Version | Text Only | Print | Product List | Glossary On
Versions: 1 2 3 4 5 6 7 8 9 10 11 12 13 14 15 16 17 18 19 20 21 22 23 24 25 26 27 28 29 30 31 32 33 34 35 36 37 38 39 40 41 42 43 44 45 46 47 48 49 50
441
ASUS44 KLIX 190605
RWRLIX
NEW ORLEANS REGIONAL WEATHER ROUNDUP
NATIONAL WEATHER SERVICE NEW ORLEANS LA
100 AM CDT FRI SEP 19 2014

NOTE: "FAIR" INDICATES FEW OR NO CLOUDS BELOW 12,000 FEET WITH NO
      SIGNIFICANT WEATHER AND/OR OBSTRUCTIONS TO VISIBILITY.
      SKY/WX - SKY CONDITION AND SIGNIFICANT WEATHER.
      TMP - AIR TEMPERATURE.     DP    - DEWPOINT TEMPERATURE.
      RH  - RELATIVE HUMIDITY.   PRES  - PRESSURE.
      HI  - HEAT INDEX.          WCI   - WIND CHILL INDEX.

*  THESE STATIONS ARE NOT NWS OR FAA STATIONS AND ARE NOT UNDER
   NWS QUALITY CONTROL.

LAZ038-040-048-061>063-065>067-069-190700-
SOUTHEAST LOUISIANA

CITY           SKY/WX    TMP DP  RH WIND       PRES   REMARKS
N.O. AUDUBON     N/A     79  73  81 MISG        N/A
6HR MIN TEMP:  78; 6HR MAX TEMP:  82;

N.O. INTL ARPT CLOUDY    79  68  69 E10       29.92F
6HR MIN TEMP:  78; 6HR MAX TEMP:  80; 6HR PCP: TRACE;

N.O. LAKEFRONT CLOUDY    74  69  85 E10       29.95R HAZE
6HR MIN TEMP:  74; 6HR MAX TEMP:  80; 6HR PCP:  0.42;

N.O. DOWNTOWN* CLOUDY    75  68  78 NE3       29.94S
6HR MIN TEMP:  75; 6HR MAX TEMP:  82; 6HR PCP:  0.21;

SLIDELL        LGT RAIN  72  70  93 N10       29.94R
6HR MIN TEMP:  72; 6HR MAX TEMP:  83; 6HR PCP:  0.02;

BATON ROUGE    CLOUDY    73  70  90 E3        29.93F
6HR MIN TEMP:  72; 6HR MAX TEMP:  73; 6HR PCP:  0.19;

BOOTHVILLE     HVY RAIN  75  73  93 S13       29.94R FOG
6HR MIN TEMP:  74; 6HR MAX TEMP:  82; 6HR PCP:  0.13;

BELLE CHASSE   LGT RAIN  76  69  79 E14       29.94R
6HR MIN TEMP:  75; 6HR MAX TEMP:  78; 6HR PCP: TRACE;

BOGALUSA*      LGT RAIN  74  69  85 CALM      29.97S
6HR MIN TEMP:  73; 6HR MAX TEMP:  79;

GALLIANO*      NOT AVBL
NEW ROADS*     CLOUDY    72  71  97 E3        29.94S
6HR MIN TEMP:  71; 6HR MAX TEMP:  82; 6HR PCP:  0.25;

GONZALES*      MOCLDY    74  74 100 CALM      29.92F
6HR MIN TEMP:  72; 6HR MAX TEMP:  74; 6HR PCP:  0.01;

HAMMOND*       CLOUDY    72  68  88 N3        29.94F
HOUMA*         CLOUDY    74  70  86 CALM      29.91F
6HR MIN TEMP:  73; 6HR MAX TEMP:  80;

PORT FOURCHON* MOCLDY    81  75  83 N6        29.94S HAZE

$$

MSZ070-080>082-190700-
SOUTHERN MISSISSIPPI

CITY           SKY/WX    TMP DP  RH WIND       PRES   REMARKS
MCCOMB         LGT RAIN  71  69  93 CALM      29.95F
6HR MIN TEMP:  71; 6HR MAX TEMP:  81; 6HR PCP:  0.18;

GULFPORT       CLOUDY    73  69  87 N3        29.95F
6HR MIN TEMP:  72; 6HR MAX TEMP:  83; 6HR PCP:  0.49;

BILOXI         CLOUDY    73  70  89 NW3       29.95S
6HR MIN TEMP:  72; 6HR MAX TEMP:  75; 6HR PCP:  0.65;

PASCAGOULA     CLOUDY    72  69  90 N6        29.94S
6HR MIN TEMP:  71; 6HR MAX TEMP:  73; 6HR PCP: TRACE;


$$

COASTAL OBSERVATIONS
LAKE AND NEARSHORE STATIONS

STATION/POSITION TIME  TEMP    WIND        PRES    WAVE
                       AIR SEA DIR/SP/G            HT/PER
                 (UTC) (F)     (DEG/KT/KT) (MB)    (FT/S)
PASCAGOULA       0600   75     340/  6/  8 1013.2
WAVELAND YACHT   0600   74      50/ 10/ 11 1013.4
GRAND ISLE       0600   79 86   60/  8/ 11 1013.4
SOUTHWEST PASS   0600   78 91   40/  9/ 11 1013.6
NEW CANAL        0600   75 82   80/  8/ 13 1013.8
SHELL BEACH      0600   76 80  100/ 20/ 25 1013.5

OFFSHORE STATIONS

STATION/POSITION TIME  TEMP    WIND        PRES    WAVE
                       AIR SEA DIR/SP/G            HT/PER
                 (UTC) (F)     (DEG/KT/KT) (MB)    (FT/S)
64 S DAUPHIN ISL 0545   82 85  120/  6/  8 1013.6    1

$$




USA.gov is the U.S. government's official web portal to all federal, state and local government web resources and services.